Weather History for Lamar, CO

Change the Weather History Date:

Tuesday, July 16, 2013

  Actual Average Record
Temperature  
Mean Temperature 71 °F 78 °F  
Max Temperature 81 °F 94 °F 106 °F (2003)
Min Temperature 60 °F 62 °F 50 °F (1992)
Degree Days  
Heating Degree Days 0 0  
Month to date heating degree days 0 0  
Since 1 June heating degree days 16 20  
Since 1 July heating degree days 0 0  
Cooling Degree Days 6 13  
Month to date cooling degree days 228 191  
Year to date cooling degree days 751 471  
Since 1 June cooling degree days 610 411  
Growing Degree Days 22 (Base 50)    
Moisture  
Dew Point 57 °F    
Average Humidity 60    
Maximum Humidity 81    
Minimum Humidity 39    
Precipitation  
Precipitation 0.00 in 0.10 in 0.64 in (1984)
Month to date precipitation 1.05 1.33  
Year to date precipitation 3.86 8.53  
Sea Level Pressure  
Sea Level Pressure 30.09 in    
Wind  
Wind Speed 13 mph (SE)    
Max Wind Speed 25 mph    
Max Gust Speed 31 mph    
Visibility 10 miles    
Events      
T = Trace of Precipitation, MM = Missing Value Source: NWS Daily Summary

Daily Weather History Graph

Daily Weather History Graph

Search for Another Location

Airport:

Trip Planner

Search our weather history database for the weather conditions in past years. The results will help you decide how hot, cold, wet, or windy it might be!

Date:

Astronomy

Jul. 16, 2013 Rise Set
Actual Time 5:40 AM MDT 8:12 PM MDT
Civil Twilight 5:10 AM MDT 8:42 PM MDT
Nautical Twilight 4:32 AM MDT 9:20 PM MDT
Astronomical Twilight 3:50 AM MDT 10:02 PM MDT
Moon 1:58 PM MDT (7/16) 12:09 AM MDT (7/16)
Length of Visible Light 15h 32m
Length of Day
14h 31m
First Quarter, 57% of the Moon is Illuminated
Jul 16
First Quarter
Jul 22
Full
Jul 29
Last Quarter
Aug 6
New
Aug 14
First Quarter

Hourly Weather History & Observations

Time (MDT) Temp. Heat Index Dew Point Humidity Pressure Visibility Wind Dir Wind Speed Gust Speed Precip Events Conditions
12:53 AM 66.9 °F - 55.0 °F 66% 30.05 in 10.0 mi Calm Calm - N/A   Overcast
1:53 AM 66.0 °F - 57.0 °F 73% 30.02 in 10.0 mi Calm Calm - N/A   Mostly Cloudy
2:53 AM 64.9 °F - 55.0 °F 70% 30.03 in 10.0 mi SSE 5.8 mph - N/A   Partly Cloudy
3:53 AM 64.0 °F - 54.0 °F 70% 30.03 in 10.0 mi South 9.2 mph - N/A   Mostly Cloudy
4:53 AM 62.1 °F - 54.0 °F 75% 30.03 in 10.0 mi South 4.6 mph - N/A   Clear
5:53 AM 62.1 °F - 55.0 °F 78% 30.05 in 9.0 mi SSE 11.5 mph - N/A   Clear
6:53 AM 63.0 °F - 55.0 °F 75% 30.08 in 9.0 mi South 11.5 mph - N/A   Partly Cloudy
7:53 AM 66.9 °F - 57.0 °F 70% 30.10 in 10.0 mi SSE 11.5 mph - N/A   Clear
8:53 AM 70.0 °F - 55.0 °F 59% 30.12 in 10.0 mi South 11.5 mph - N/A   Partly Cloudy
9:53 AM 71.1 °F - 55.0 °F 57% 30.11 in 10.0 mi SSE 10.4 mph - N/A   Partly Cloudy
10:53 AM 73.9 °F - 55.0 °F 52% 30.11 in 10.0 mi SE 16.1 mph - N/A   Mostly Cloudy
11:53 AM 75.0 °F - 54.0 °F 48% 30.10 in 10.0 mi ESE 15.0 mph 21.9 mph N/A   Scattered Clouds
12:53 PM 77.0 °F - 54.0 °F 45% 30.09 in 10.0 mi ESE 13.8 mph 19.6 mph N/A   Scattered Clouds
1:53 PM 80.1 °F 80.0 °F 54.0 °F 40% 30.07 in 10.0 mi SSE 13.8 mph 26.5 mph N/A   Overcast
2:53 PM 81.0 °F 81.0 °F 57.0 °F 44% 30.06 in 10.0 mi SE 16.1 mph 26.5 mph N/A   Scattered Clouds
3:53 PM 77.0 °F - 59.0 °F 54% 30.07 in 10.0 mi East 18.4 mph 26.5 mph N/A   Mostly Cloudy
4:53 PM 77.0 °F - 57.9 °F 52% 30.08 in 10.0 mi ESE 18.4 mph 27.6 mph N/A   Mostly Cloudy
5:53 PM 78.1 °F - 57.9 °F 50% 30.08 in 10.0 mi SE 21.9 mph 26.5 mph N/A   Scattered Clouds
6:53 PM 75.0 °F - 59.0 °F 57% 30.09 in 10.0 mi SE 20.7 mph - N/A   Partly Cloudy
7:53 PM 73.0 °F - 59.0 °F 61% 30.09 in 10.0 mi SE 19.6 mph 28.8 mph N/A   Clear
8:53 PM 71.1 °F - 60.1 °F 68% 30.12 in 10.0 mi SE 13.8 mph 21.9 mph N/A   Clear
9:53 PM 69.1 °F - 60.1 °F 73% 30.15 in 10.0 mi SE 13.8 mph - N/A   Clear
10:53 PM 68.0 °F - 60.1 °F 76% 30.17 in 10.0 mi SE 9.2 mph - N/A   Mostly Cloudy
11:21 PM 66.2 °F - 60.8 °F 83% 30.30 in 10.0 mi SSE 13.8 mph - N/A   Scattered Clouds
11:53 PM 66.0 °F - 60.1 °F 81% 30.17 in 10.0 mi SSE 13.8 mph - N/A   Partly Cloudy